This is the latest recevied weather packets stored in our database for station/object WE1C. If no packets are shown the sender has not sent any weather packets the latest 10 day(s).
| Time | Temp. | Humidity | Pressure | Rain* | Wind** | Luminosity | Snow |
|---|---|---|---|---|---|---|---|
| 1777989392 | 21.11° C | 53% | 1039.1 hPa | 0 mm | - | 707 W/m² | - |
| 1777989089 | 20.56° C | 53% | 1039.1 hPa | 0 mm | - | 726 W/m² | - |
| 1777988785 | 20.56° C | 54% | 1039 hPa | 0 mm | - | 694 W/m² | - |
| 1777988483 | 20° C | 55% | 1039.1 hPa | 0 mm | - | 678 W/m² | - |
| 1777988179 | 20° C | 55% | 1039.1 hPa | 0 mm | - | 668 W/m² | - |
| 1777987875 | 19.44° C | 58% | 1039.2 hPa | 0 mm | - | 630 W/m² | - |
| 1777987572 | 18.89° C | 58% | 1039 hPa | 0 mm | - | 600 W/m² | - |
| 1777987269 | 18.89° C | 57% | 1039.1 hPa | 0 mm | - | 573 W/m² | - |
| 1777986966 | 18.33° C | 58% | 1038.9 hPa | 0 mm | - | 548 W/m² | - |
| 1777986664 | 18.89° C | 58% | 1039 hPa | 0 mm | - | 566 W/m² | - |
| 1777986361 | 18.33° C | 58% | 1038.9 hPa | 0 mm | - | 524 W/m² | - |
| 1777986060 | 17.78° C | 60% | 1039 hPa | 0 mm | - | 505 W/m² | - |
| 1777985756 | 17.78° C | 60% | 1039.2 hPa | 0 mm | - | 464 W/m² | - |
| 1777985453 | 17.22° C | 61% | 1039.2 hPa | 0 mm | - | 464 W/m² | - |
| 1777985150 | 17.22° C | 61% | 1038.9 hPa | 0 mm | - | 435 W/m² | - |
| 1777984846 | 17.22° C | 61% | 1039.2 hPa | 0 mm | - | 405 W/m² | - |
| 1777984543 | 16.67° C | 64% | 1039 hPa | 0 mm | - | 396 W/m² | - |
| 1777984239 | 16.11° C | 64% | 1039.2 hPa | 0 mm | - | 377 W/m² | - |
| 1777983936 | 16.67° C | 63% | 1039.5 hPa | 0 mm | - | 130 W/m² | - |
| 1777983633 | 16.11° C | 64% | 1039.3 hPa | 0 mm | - | 421 W/m² | - |
| 1777983329 | 15.56° C | 65% | 1039.3 hPa | 0 mm | - | 172 W/m² | - |
| 1777983026 | 16.67° C | 64% | 1039.3 hPa | 0 mm | - | 96 W/m² | - |
| 1777982722 | 16.11° C | 64% | 1039.2 hPa | 0 mm | - | 278 W/m² | - |
| 1777982418 | 15.56° C | 65% | 1039.4 hPa | 0 mm | - | 180 W/m² | - |
| 1777982113 | 15.56° C | 65% | 1039.3 hPa | 0 mm | - | 272 W/m² | - |
* Rain latest hour (hover to see other rain measurements)
** Current wind speed in m/s (hover to see current wind gust speed)